Time,TemperatureF,DewpointF,PressureIn,WindDirection,WindDirectionDegrees,WindSpeedMPH,WindSpeedGustMPH,Humidity,HourlyPrecipIn,Conditions,Clouds,dailyrainin,SoftwareType,DateUTC
2013-08-10 00:02:00,74.0,74.0,30.05,SSE,150,3.0,5.0,100,99.99,,,-99.99,,2013-08-10 04:02:00,
2013-08-10 00:12:00,74.0,74.0,30.06,SSE,152,3.0,6.0,100,99.99,,,-99.99,,2013-08-10 04:12:00,
2013-08-10 00:32:00,74.0,74.0,30.06,East,97,2.0,3.0,100,99.99,,,-99.99,,2013-08-10 04:32:00,
2013-08-10 00:53:00,74.0,74.0,30.07,ENE,75,2.0,4.0,100,99.99,,,-99.99,,2013-08-10 04:53:00,
2013-08-10 01:11:00,74.0,74.0,30.07,ENE,76,3.0,5.0,100,99.99,,,-99.99,,2013-08-10 05:11:00,
2013-08-10 01:43:00,74.0,74.0,30.07,North,0,0.0,0.0,100,99.99,,,-99.99,,2013-08-10 05:43:00,
2013-08-10 01:52:00,75.0,75.0,30.07,North,0,0.0,0.0,100,99.99,,,-99.99,,2013-08-10 05:52:00,
2013-08-10 02:32:00,74.0,74.0,30.07,North,0,0.0,0.0,100,99.99,,,-99.99,,2013-08-10 06:32:00,
2013-08-10 03:02:00,74.0,74.0,30.06,North,0,0.0,0.0,100,99.99,,,-99.99,,2013-08-10 07:02:00,
2013-08-10 03:13:00,74.0,74.0,30.06,North,0,0.0,0.0,100,99.99,,,-99.99,,2013-08-10 07:13:00,
2013-08-10 03:22:00,74.0,74.0,30.06,North,0,0.0,0.0,100,99.99,,,-99.99,,2013-08-10 07:22:00,
2013-08-10 03:33:00,74.0,74.0,30.06,North,0,0.0,0.0,100,99.99,,,-99.99,,2013-08-10 07:33:00,
2013-08-10 03:43:00,74.0,74.0,30.06,North,0,0.0,0.0,100,99.99,,,-99.99,,2013-08-10 07:43:00,
2013-08-10 03:52:00,74.0,74.0,30.06,North,0,0.0,0.0,100,99.99,,,-99.99,,2013-08-10 07:52:00,
2013-08-10 04:01:00,74.0,74.0,30.06,North,0,0.0,0.0,100,99.99,,,-99.99,,2013-08-10 08:01:00,
2013-08-10 04:12:00,74.0,74.0,30.06,North,0,0.0,0.0,100,99.99,,,-99.99,,2013-08-10 08:12:00,
2013-08-10 04:32:00,74.0,74.0,30.06,North,0,0.0,0.0,100,99.99,,,-99.99,,2013-08-10 08:32:00,
2013-08-10 04:43:00,74.0,74.0,30.06,North,0,0.0,0.0,100,99.99,,,-99.99,,2013-08-10 08:43:00,
2013-08-10 04:53:00,74.0,74.0,30.06,North,0,0.0,0.0,100,99.99,,,-99.99,,2013-08-10 08:53:00,
2013-08-10 05:02:00,74.0,74.0,30.06,North,0,0.0,0.0,100,99.99,,,-99.99,,2013-08-10 09:02:00,
2013-08-10 05:12:00,74.0,74.0,30.06,North,0,0.0,0.0,100,99.99,,,-99.99,,2013-08-10 09:12:00,
2013-08-10 05:22:00,74.0,74.0,30.06,North,0,0.0,0.0,100,99.99,,,-99.99,,2013-08-10 09:22:00,
2013-08-10 05:43:00,74.0,74.0,30.06,North,0,0.0,0.0,100,99.99,,,-99.99,,2013-08-10 09:43:00,
2013-08-10 05:52:00,74.0,74.0,30.06,North,0,0.0,0.0,100,99.99,,,-99.99,,2013-08-10 09:52:00,
2013-08-10 06:02:00,74.0,74.0,30.06,North,0,0.0,0.0,100,99.99,,,-99.99,,2013-08-10 10:02:00,
2013-08-10 06:22:00,74.0,74.0,30.06,North,0,0.0,0.0,100,99.99,,,-99.99,,2013-08-10 10:22:00,
2013-08-10 06:52:00,74.0,74.0,30.07,North,0,0.0,0.0,100,99.99,,,-99.99,,2013-08-10 10:52:00,
2013-08-10 07:33:00,74.0,74.0,30.07,North,0,0.0,0.0,100,99.99,,,-99.99,,2013-08-10 11:33:00,
2013-08-10 07:43:00,75.0,75.0,30.08,North,0,0.0,0.0,100,99.99,,,-99.99,,2013-08-10 11:43:00,
2013-08-10 07:53:00,75.0,75.0,30.07,North,0,0.0,0.0,100,99.99,,,-99.99,,2013-08-10 11:53:00,
2013-08-10 08:32:00,76.0,76.0,30.09,North,0,0.0,0.0,100,99.99,,,-99.99,,2013-08-10 12:32:00,
2013-08-10 08:42:00,77.0,77.0,30.10,SSE,149,5.0,10.0,100,99.99,,,-99.99,,2013-08-10 12:42:00,
2013-08-10 08:52:00,78.0,78.0,30.10,SSE,153,4.0,8.0,100,99.99,,,-99.99,,2013-08-10 12:52:00,
2013-08-10 09:01:00,78.0,78.0,30.10,SE,146,4.0,6.0,100,99.99,,,-99.99,,2013-08-10 13:01:00,
2013-08-10 09:43:00,82.0,81.0,30.10,SE,141,6.0,10.0,96,99.99,,,-99.99,,2013-08-10 13:43:00,
2013-08-10 09:52:00,82.0,81.0,30.10,SSE,160,5.0,9.0,96,99.99,,,-99.99,,2013-08-10 13:52:00,
2013-08-10 10:02:00,83.0,80.0,30.11,SSE,159,7.0,12.0,92,99.99,,,-99.99,,2013-08-10 14:02:00,
2013-08-10 10:12:00,84.0,79.0,30.11,SE,146,6.0,10.0,85,99.99,,,-99.99,,2013-08-10 14:12:00,
2013-08-10 10:33:00,85.0,79.0,30.11,SE,146,7.0,11.0,83,99.99,,,-99.99,,2013-08-10 14:33:00,
2013-08-10 10:53:00,85.0,78.0,30.12,South,169,8.0,13.0,79,99.99,,,-99.99,,2013-08-10 14:53:00,
2013-08-10 11:02:00,86.0,78.0,30.12,SSE,155,9.0,15.0,77,99.99,,,-99.99,,2013-08-10 15:02:00,
2013-08-10 11:22:00,86.0,77.0,30.12,SSE,148,9.0,14.0,74,99.99,,,-99.99,,2013-08-10 15:22:00,
2013-08-10 11:34:00,86.0,76.0,30.12,SSE,165,11.0,16.0,72,99.99,,,-99.99,,2013-08-10 15:34:00,
2013-08-10 11:43:00,87.0,78.0,30.12,South,186,8.0,12.0,74,99.99,,,-99.99,,2013-08-10 15:43:00,
2013-08-10 11:52:00,86.0,76.0,30.13,South,180,11.0,15.0,72,99.99,,,-99.99,,2013-08-10 15:52:00,
2013-08-10 12:01:00,88.0,78.0,30.12,SSE,150,9.0,12.0,72,99.99,,,-99.99,,2013-08-10 16:01:00,
2013-08-10 12:11:00,89.0,77.0,30.12,SSE,153,10.0,15.0,69,99.99,,,-99.99,,2013-08-10 16:11:00,
2013-08-10 12:22:00,88.0,76.0,30.12,SSE,159,10.0,14.0,68,99.99,,,-99.99,,2013-08-10 16:22:00,
2013-08-10 12:32:00,89.0,77.0,30.12,South,174,10.0,16.0,67,99.99,,,-99.99,,2013-08-10 16:32:00,
2013-08-10 12:43:00,90.0,77.0,30.12,South,183,8.0,15.0,66,99.99,,,-99.99,,2013-08-10 16:43:00,
2013-08-10 12:53:00,90.0,76.0,30.12,South,181,11.0,17.0,64,99.99,,,-99.99,,2013-08-10 16:53:00,
2013-08-10 13:02:00,89.0,74.0,30.11,SSE,165,9.0,16.0,62,99.99,,,-99.99,,2013-08-10 17:02:00,
2013-08-10 13:12:00,91.0,76.0,30.11,SSE,155,5.0,9.0,62,99.99,,,-99.99,,2013-08-10 17:12:00,
2013-08-10 13:22:00,92.0,76.0,30.11,SSE,150,7.0,11.0,60,99.99,,,-99.99,,2013-08-10 17:22:00,
2013-08-10 13:33:00,91.0,76.0,30.11,SE,145,9.0,13.0,62,99.99,,,-99.99,,2013-08-10 17:33:00,
2013-08-10 13:43:00,92.0,77.0,30.11,SSE,156,5.0,11.0,62,99.99,,,-99.99,,2013-08-10 17:43:00,
2013-08-10 13:52:00,91.0,76.0,30.10,SSE,159,5.0,10.0,61,99.99,,,-99.99,,2013-08-10 17:52:00,
2013-08-10 14:01:00,92.0,77.0,30.11,South,174,8.0,13.0,61,99.99,,,-99.99,,2013-08-10 18:01:00,
2013-08-10 14:11:00,92.0,76.0,30.11,SE,143,7.0,12.0,59,99.99,,,-99.99,,2013-08-10 18:11:00,
2013-08-10 14:23:00,92.0,75.0,30.10,SE,145,6.0,15.0,58,99.99,,,-99.99,,2013-08-10 18:23:00,
2013-08-10 14:32:00,91.0,75.0,30.10,SE,142,8.0,13.0,60,99.99,,,-99.99,,2013-08-10 18:32:00,
2013-08-10 14:44:00,91.0,75.0,30.10,SSE,148,7.0,11.0,60,99.99,,,-99.99,,2013-08-10 18:44:00,
2013-08-10 14:52:00,93.0,75.0,30.10,SE,132,5.0,10.0,56,99.99,,,-99.99,,2013-08-10 18:52:00,
2013-08-10 15:02:00,93.0,74.0,30.09,SE,139,5.0,10.0,54,99.99,,,-99.99,,2013-08-10 19:02:00,
2013-08-10 15:11:00,93.0,74.0,30.09,SSE,149,7.0,11.0,54,99.99,,,-99.99,,2013-08-10 19:11:00,
2013-08-10 15:22:00,93.0,74.0,30.08,ESE,121,7.0,11.0,54,99.99,,,-99.99,,2013-08-10 19:22:00,
2013-08-10 15:33:00,93.0,73.0,30.08,SSE,148,6.0,12.0,53,99.99,,,-99.99,,2013-08-10 19:33:00,
2013-08-10 15:44:00,94.0,72.0,30.08,SE,146,6.0,14.0,50,99.99,,,-99.99,,2013-08-10 19:44:00,
2013-08-10 15:53:00,94.0,74.0,30.08,East,82,5.0,10.0,53,99.99,,,-99.99,,2013-08-10 19:53:00,
2013-08-10 16:02:00,94.0,72.0,30.08,SE,145,6.0,10.0,49,99.99,,,-99.99,,2013-08-10 20:02:00,
2013-08-10 16:12:00,95.0,73.0,30.07,SE,142,7.0,12.0,50,99.99,,,-99.99,,2013-08-10 20:12:00,
2013-08-10 16:22:00,95.0,73.0,30.07,SSE,149,4.0,11.0,50,99.99,,,-99.99,,2013-08-10 20:22:00,
2013-08-10 16:33:00,95.0,73.0,30.07,SE,142,6.0,13.0,49,99.99,,,-99.99,,2013-08-10 20:33:00,
2013-08-10 16:43:00,95.0,73.0,30.07,SE,143,7.0,12.0,50,99.99,,,-99.99,,2013-08-10 20:43:00,
2013-08-10 16:53:00,95.0,72.0,30.07,SE,143,10.0,15.0,48,99.99,,,-99.99,,2013-08-10 20:53:00,
2013-08-10 17:02:00,95.0,73.0,30.07,SSE,156,9.0,14.0,49,99.99,,,-99.99,,2013-08-10 21:02:00,
2013-08-10 17:12:00,94.0,72.0,30.06,South,172,9.0,12.0,49,99.99,,,-99.99,,2013-08-10 21:12:00,
2013-08-10 17:22:00,95.0,73.0,30.06,SSE,162,8.0,11.0,49,99.99,,,-99.99,,2013-08-10 21:22:00,
2013-08-10 17:32:00,95.0,72.0,30.06,SE,141,8.0,14.0,48,99.99,,,-99.99,,2013-08-10 21:32:00,
2013-08-10 17:42:00,95.0,73.0,30.05,SSE,159,6.0,11.0,49,99.99,,,-99.99,,2013-08-10 21:42:00,
2013-08-10 17:52:00,95.0,73.0,30.05,SE,132,6.0,13.0,49,99.99,,,-99.99,,2013-08-10 21:52:00,
2013-08-10 18:01:00,94.0,72.0,30.05,SE,146,7.0,13.0,49,99.99,,,-99.99,,2013-08-10 22:01:00,
2013-08-10 18:11:00,94.0,72.0,30.05,SSE,149,7.0,11.0,49,99.99,,,-99.99,,2013-08-10 22:11:00,
2013-08-10 18:21:00,95.0,74.0,30.06,SE,139,6.0,10.0,51,99.99,,,-99.99,,2013-08-10 22:21:00,
2013-08-10 18:32:00,94.0,72.0,30.06,SSE,149,9.0,16.0,50,99.99,,,-99.99,,2013-08-10 22:32:00,
2013-08-10 18:52:00,93.0,72.0,30.06,SSE,158,9.0,12.0,51,99.99,,,-99.99,,2013-08-10 22:52:00,
2013-08-10 19:01:00,93.0,72.0,30.06,SSE,152,9.0,14.0,51,99.99,,,-99.99,,2013-08-10 23:01:00,
2013-08-10 19:12:00,93.0,72.0,30.06,SSE,152,9.0,14.0,51,99.99,,,-99.99,,2013-08-10 23:12:00,
2013-08-10 19:22:00,91.0,73.0,30.05,SSE,149,7.0,9.0,56,99.99,,,-99.99,,2013-08-10 23:22:00,
2013-08-10 19:32:00,91.0,74.0,30.06,SSE,148,5.0,7.0,58,99.99,,,-99.99,,2013-08-10 23:32:00,
2013-08-10 19:43:00,91.0,75.0,30.06,SSE,165,3.0,4.0,60,99.99,,,-99.99,,2013-08-10 23:43:00,
2013-08-10 19:53:00,90.0,76.0,30.06,SSE,156,3.0,4.0,63,99.99,,,-99.99,,2013-08-10 23:53:00,
2013-08-10 20:02:00,90.0,77.0,30.06,South,173,2.0,4.0,65,99.99,,,-99.99,,2013-08-11 00:02:00,
2013-08-10 20:11:00,88.0,77.0,30.07,South,176,2.0,4.0,71,99.99,,,-99.99,,2013-08-11 00:11:00,
2013-08-10 20:22:00,87.0,77.0,30.06,SSE,152,3.0,4.0,72,99.99,,,-99.99,,2013-08-11 00:22:00,
2013-08-10 20:32:00,86.0,77.0,30.06,SSE,160,3.0,5.0,74,99.99,,,-99.99,,2013-08-11 00:32:00,
2013-08-10 20:42:00,86.0,77.0,30.06,SSE,153,3.0,4.0,75,99.99,,,-99.99,,2013-08-11 00:42:00,
2013-08-10 20:52:00,84.0,76.0,30.07,SSE,152,3.0,4.0,78,99.99,,,-99.99,,2013-08-11 00:52:00,
2013-08-10 21:01:00,84.0,77.0,30.08,SSE,156,3.0,4.0,80,99.99,,,-99.99,,2013-08-11 01:01:00,
2013-08-10 21:11:00,83.0,77.0,30.07,SSE,149,3.0,4.0,81,99.99,,,-99.99,,2013-08-11 01:11:00,
2013-08-10 21:22:00,83.0,77.0,30.08,SE,145,3.0,4.0,81,99.99,,,-99.99,,2013-08-11 01:22:00,
2013-08-10 21:32:00,82.0,76.0,30.08,SE,145,2.0,5.0,81,99.99,,,-99.99,,2013-08-11 01:32:00,
2013-08-10 21:43:00,82.0,77.0,30.09,ESE,103,2.0,3.0,85,99.99,,,-99.99,,2013-08-11 01:43:00,
2013-08-10 21:53:00,82.0,77.0,30.10,SE,124,2.0,3.0,86,99.99,,,-99.99,,2013-08-11 01:53:00,
2013-08-10 22:02:00,82.0,77.0,30.10,SE,145,4.0,10.0,84,99.99,,,-99.99,,2013-08-11 02:02:00,
2013-08-10 22:11:00,82.0,76.0,30.10,ESE,118,4.0,7.0,82,99.99,,,-99.99,,2013-08-11 02:11:00,
2013-08-10 22:22:00,82.0,76.0,30.11,ESE,121,4.0,7.0,82,99.99,,,-99.99,,2013-08-11 02:22:00,
2013-08-10 22:32:00,82.0,76.0,30.11,SE,146,5.0,9.0,82,99.99,,,-99.99,,2013-08-11 02:32:00,
2013-08-10 22:43:00,82.0,76.0,30.11,ESE,122,5.0,8.0,83,99.99,,,-99.99,,2013-08-11 02:43:00,
2013-08-10 22:56:00,82.0,77.0,30.11,SE,125,3.0,5.0,84,99.99,,,-99.99,,2013-08-11 02:56:00,
2013-08-10 23:05:00,81.0,76.0,30.11,SE,124,3.0,5.0,85,99.99,,,-99.99,,2013-08-11 03:05:00,
2013-08-10 23:17:00,81.0,77.0,30.12,ESE,122,3.0,6.0,87,99.99,,,-99.99,,2013-08-11 03:17:00,
2013-08-10 23:27:00,81.0,77.0,30.13,SE,124,3.0,4.0,88,99.99,,,-99.99,,2013-08-11 03:27:00,
2013-08-10 23:35:00,81.0,77.0,30.13,ESE,108,3.0,5.0,89,99.99,,,-99.99,,2013-08-11 03:35:00,
2013-08-10 23:44:00,80.0,77.0,30.13,SE,143,2.0,4.0,90,99.99,,,-99.99,,2013-08-11 03:44:00,
2013-08-10 23:54:00,80.0,77.0,30.13,SE,138,3.0,5.0,91,99.99,,,-99.99,,2013-08-11 03:54:00,